Location: Veytaux
(46.4185°N, 6.9320°E)
Time: 13:20:45
(UTC+00:00)

Helios 1B rocket - Visible Passes

Search period start: 26 September 2022 00:00
Search period end: 06 October 2022 00:00
Orbit: 566 x 578 km, 98.2° (Epoch: 25 September)

Date Brightness Start Highest point End Pass type
(mag) Time Alt. Az. Time Alt. Az. Time Alt. Az.
26 Sep 5.0 02:13:30 10° NE 02:15:58 15° E 02:16:59 14° ESE visible
26 Sep 2.6 03:47:25 10° N 03:51:22 50° WNW 03:53:08 29° SW visible
27 Sep 4.9 02:15:56 10° NE 02:18:32 16° E 02:19:28 15° ESE visible
27 Sep 2.6 03:49:59 10° N 03:53:54 48° WNW 03:55:38 29° SW visible
28 Sep 4.9 02:18:22 10° NE 02:21:05 17° E 02:21:56 16° ESE visible
28 Sep 2.7 03:52:33 10° N 03:56:26 45° WNW 03:58:06 28° SW visible
29 Sep 4.8 02:20:48 10° NE 02:23:39 18° E 02:24:24 17° ESE visible
29 Sep 2.8 03:55:06 10° N 03:58:58 43° WNW 04:00:35 28° WSW visible
30 Sep 4.8 02:23:14 10° NE 02:26:11 19° E 02:26:52 18° ESE visible
30 Sep 2.8 03:57:39 10° N 04:01:28 40° WNW 04:03:02 28° WSW visible
01 Oct 4.7 02:25:40 10° NE 02:28:43 20° E 02:29:19 19° ESE visible
01 Oct 2.9 04:00:11 10° N 04:03:59 38° WNW 04:05:29 27° WSW visible
02 Oct 4.6 02:28:06 10° NE 02:31:15 21° E 02:31:45 21° ESE visible
02 Oct 3.0 04:02:43 10° N 04:06:28 36° WNW 04:07:55 27° WSW visible
03 Oct 4.5 02:30:32 10° NE 02:33:46 22° E 02:34:12 22° ESE visible
03 Oct 3.1 04:05:15 10° N 04:08:58 35° WNW 04:10:21 27° WSW visible
04 Oct 4.5 02:32:58 10° NE 02:36:17 23° E 02:36:37 23° ESE visible
04 Oct 3.1 04:07:46 10° N 04:11:27 33° WNW 04:12:46 26° WSW visible
05 Oct 4.4 02:35:24 10° NE 02:38:46 25° E 02:39:02 25° ESE visible
05 Oct 3.2 04:10:17 10° N 04:13:55 31° WNW 04:15:11 26° WSW visible
